Terminal Aerodrome Forecast
Issued by NWS

Home | Current Version | Previous Version | Text Only | Print | Product List | Glossary On
Versions: 1 2 3 4 5 6 7 8 9 10 11 12 13 14 15 16 17
000
FTAK31 PAJN 231342 AAA
TAFAGY
TAF AMD
PAGY 231342Z 2314/2412 21006KT P6SM VCSH BKN015 OVC040
     FM231800 21009KT P6SM VCSH BKN025 OVC040
     FM232100 21010KT P6SM SCT025 OVC040
     FM240900 21006KT P6SM -RA BKN015 OVC030
      AMD LTD TO CLD VIS AND WIND=

USA.gov is the U.S. government's official web portal to all federal, state and local government web resources and services.